Weather History for PAIK - September, 2012

Change the Weather History Date:

Tuesday, September 4, 2012

  Actual Average Record
Temperature  
Mean Temperature 46 °F -  
Max Temperature 46 °F - - ()
Min Temperature 44 °F - - ()
Degree Days  
Heating Degree Days 19    
Moisture  
Dew Point 42 °F    
Average Humidity 87    
Maximum Humidity 97    
Minimum Humidity 76    
Precipitation  
Precipitation 0.00 in - - ()
Sea Level Pressure  
Sea Level Pressure 29.55 in    
Wind  
Wind Speed 9 mph (ESE)    
Max Wind Speed 18 mph    
Max Gust Speed 26 mph    
Visibility 10 miles    
Events Rain    
T = Trace of Precipitation, MM = Missing Value Source: NWS Daily Summary

Daily Weather History Graph

Daily Weather History Graph

Search for Another Location

Airport or City:

Trip Planner

Search our weather history database for the weather conditions in past years. The results will help you decide how hot, cold, wet, or windy it might be!

Date:

Astronomy

Sep. 04, 2012 Rise Set
Actual Time 7:25 AM AKDT 9:53 PM AKDT
Civil Twilight 6:26 AM AKDT 10:51 PM AKDT
Nautical Twilight 5:00 AM AKDT 12:15 AM AKDT
Astronomical Twilight 3:13 AM AKDT 2:07 AM AKDT
Moon 9:16 PM AKDT (9/4) 2:14 PM AKDT (9/4)
Length of Visible Light 16h 25m
Length of Day
14h 27m
Waning Gibbous, 82% of the Moon is Illuminated
Sep 4
Waning Gibbous
Sep 8
Last Quarter
Sep 15
New
Sep 22
First Quarter
Sep 29
Full

Hourly Weather History & Observations

Time (AKDT) Temp. Windchill Dew Point Humidity Pressure Visibility Wind Dir Wind Speed Gust Speed Precip Events Conditions
12:01 AM 48.9 °F - 46.9 °F 93% 29.51 in 10.0 mi ENE 4.6 mph - N/A   Mostly Cloudy
1:01 AM 48.9 °F - 45.0 °F 86% 29.52 in 10.0 mi ESE 11.5 mph 17.3 mph N/A   Mostly Cloudy
2:01 AM 48.0 °F - 45.0 °F 89% 29.55 in 10.0 mi ESE 10.4 mph 18.4 mph N/A   Overcast
3:01 AM 48.0 °F - 45.0 °F 89% 29.57 in 10.0 mi ESE 10.4 mph 18.4 mph N/A   Overcast
3:22 AM 48.2 °F - 44.6 °F 87% 29.45 in 10.0 mi ESE 9.2 mph - N/A   Overcast
4:01 AM 46.9 °F - 45.0 °F 93% 29.59 in 10.0 mi ESE 8.1 mph - N/A Rain Light Rain
5:01 AM 46.4 °F 42.9 °F 44.6 °F 93% 29.49 in 10.0 mi East 6.9 mph - N/A Rain Light Rain
5:08 AM 46.4 °F 43.5 °F 44.6 °F 93% 29.49 in 10.0 mi East 5.8 mph - N/A Rain Light Rain
6:01 AM 46.9 °F - 43.0 °F 86% 29.63 in 10.0 mi SSE 10.4 mph - N/A   Overcast
6:50 AM 46.4 °F 43.5 °F 42.8 °F 87% 29.52 in 10.0 mi SE 5.8 mph 17.3 mph N/A   Overcast
7:01 AM 46.0 °F 41.9 °F 42.1 °F 86% 29.64 in 10.0 mi SSE 8.1 mph - N/A   Overcast
7:12 AM 46.4 °F 41.5 °F 41.0 °F 81% 29.53 in 10.0 mi SSE 10.4 mph - N/A   Overcast
8:01 AM 45.0 °F 39.7 °F 41.0 °F 86% 29.65 in 10.0 mi SE 10.4 mph - N/A   Overcast
9:01 AM 45.0 °F 40.1 °F 39.9 °F 82% 29.68 in 10.0 mi SSE 9.2 mph - N/A   Overcast
10:01 AM 44.1 °F 39.5 °F 39.9 °F 85% 29.68 in 10.0 mi SE 8.1 mph - N/A   Overcast
11:01 AM 44.1 °F 39.5 °F 39.9 °F 85% 29.69 in 10.0 mi SSE 8.1 mph - N/A   Overcast
12:01 PM 45.0 °F 39.3 °F 39.9 °F 82% 29.70 in 10.0 mi ESE 11.5 mph 16.1 mph N/A   Overcast
1:01 PM 45.0 °F 40.6 °F 39.0 °F 80% 29.68 in 10.0 mi East 8.1 mph - N/A   Overcast
2:01 PM 46.0 °F 42.5 °F 39.0 °F 76% 29.67 in 10.0 mi ESE 6.9 mph - N/A   Overcast
3:01 PM 46.9 °F - 39.9 °F 77% 29.64 in 10.0 mi East 12.7 mph 18.4 mph N/A   Overcast
4:01 PM 46.9 °F - 39.9 °F 77% 29.62 in 10.0 mi East 12.7 mph - N/A   Overcast
4:48 PM 46.4 °F 40.7 °F 41.0 °F 81% 29.49 in 10.0 mi East 12.7 mph 19.6 mph N/A Rain Light Rain
5:01 PM 45.0 °F 39.3 °F 41.0 °F 86% 29.60 in 10.0 mi East 11.5 mph - N/A Rain Light Rain
5:48 PM 44.6 °F 38.4 °F 41.0 °F 87% 29.45 in 10.0 mi East 12.7 mph - N/A Rain Light Rain
6:01 PM 44.1 °F 36.2 °F 42.1 °F 93% 29.56 in 10.0 mi East 18.4 mph 24.2 mph N/A Rain Light Rain
6:21 PM 44.6 °F 38.1 °F 41.0 °F 87% 29.43 in 10.0 mi East 13.8 mph 23.0 mph N/A Rain Light Rain
7:01 PM 44.1 °F 38.6 °F 42.1 °F 93% 29.54 in 10.0 mi East 10.4 mph 20.7 mph N/A Rain Light Rain
8:54 PM 46.4 °F 39.2 °F 42.8 °F 87% 29.33 in 10.0 mi East 18.4 mph 26.5 mph N/A Rain Light Rain
9:01 PM 46.0 °F 39.6 °F 43.0 °F 89% 29.46 in 10.0 mi ESE 15.0 mph 26.5 mph N/A Rain Light Rain
10:01 PM 45.0 °F 37.9 °F 44.1 °F 97% 29.43 in 10.0 mi East 16.1 mph 24.2 mph N/A Rain Light Rain
11:01 PM 45.0 °F 38.5 °F 44.1 °F 97% 29.40 in 10.0 mi East 13.8 mph 19.6 mph N/A Rain Light Rain